Location: ????????
(55.3155°N, 39.2900°E)
Time: 22:55:29
(UTC+00:00)

Cosmos 2056 Rocket - Visible Passes

Search period start: 14 July 2024 00:00
Search period end: 24 July 2024 00:00
Orbit: 740 x 797 km, 74.0° (Epoch: 14 July)

Date Brightness Start Highest point End Pass type
(mag) Time Alt. Az. Time Alt. Az. Time Alt. Az.
14 Jul 5.8 20:29:11 10° E 20:29:48 10° E 20:30:25 10° E visible
14 Jul 3.9 22:06:57 18° S 22:10:44 54° ESE 22:15:50 10° NE visible
14 Jul 4.7 23:48:13 10° WSW 23:53:05 36° NW 23:57:53 10° NNE visible
15 Jul 4.4 21:30:44 18° SSE 21:34:05 36° ESE 21:38:51 10° NE visible
15 Jul 4.2 23:11:01 10° SW 23:16:05 49° NW 23:21:10 10° NNE visible
16 Jul 4.9 20:54:31 15° SE 20:57:32 24° E 21:01:41 10° NE visible
16 Jul 3.7 22:34:47 15° SW 22:39:10 71° WNW 22:44:24 10° NNE visible
17 Jul 5.4 20:18:15 11° SE 20:21:04 16° E 20:24:11 10° ENE visible
17 Jul 3.5 21:58:31 19° SSW 22:02:21 80° ESE 22:07:35 10° NNE visible
17 Jul 5.1 23:40:36 10° W 23:45:02 27° NW 23:49:26 10° NNE visible
18 Jul 5.7 19:44:26 10° E 19:44:41 10° E 19:44:56 10° E visible
18 Jul 3.8 21:22:14 21° S 21:25:36 54° ESE 21:30:41 10° NE visible
18 Jul 4.7 23:03:07 10° WSW 23:07:57 36° NW 23:12:44 10° NNE visible
19 Jul 4.3 20:45:54 19° SSE 20:48:57 36° ESE 20:53:41 10° NE visible
19 Jul 4.2 22:26:10 12° SW 22:30:57 50° NW 22:36:01 10° NNE visible
20 Jul 5.8 00:11:03 10° WNW 00:14:18 16° NNW 00:17:34 10° N visible
20 Jul 4.8 20:09:33 16° SE 20:12:24 24° E 20:16:31 10° NE visible
20 Jul 3.7 21:49:49 16° SW 21:54:02 71° WNW 21:59:14 10° NNE visible
20 Jul 5.6 23:33:10 10° W 23:37:04 21° NW 23:40:56 10° NNE visible
21 Jul 5.3 19:33:11 11° SE 19:35:56 16° E 19:39:00 10° ENE visible
21 Jul 3.5 21:13:26 19° SSW 21:17:13 80° ESE 21:22:25 10° NNE visible
21 Jul 5.2 22:55:28 10° W 22:59:53 27° NW 23:04:16 10° NNE visible
22 Jul 3.7 20:37:01 20° S 20:40:28 53° ESE 20:45:31 10° NE visible
22 Jul 4.8 22:17:58 10° WSW 22:22:47 36° NW 22:27:35 10° NNE visible
23 Jul 6.0 00:03:58 10° NW 00:06:30 13° NNW 00:08:59 10° N visible
23 Jul 4.3 20:00:33 18° SSE 20:03:49 35° ESE 20:08:31 10° NE visible
23 Jul 4.2 21:40:48 10° SW 21:45:47 50° NW 21:50:51 10° NNE visible
23 Jul 5.9 23:25:54 10° WNW 23:29:09 16° NNW 23:32:24 10° N visible
